Wetterdaten: Donnerstag, 30.10.2014
Datum Zeit Temp. A. Feuchte A. Luftdruck Regen Wind Richtung Richtung Sonnenschein ET UV Solar Taupunkt Windchill Windben Empfang
30.10.2014 00:00 5,4 C 85 % 1021,0 hPa 0,0 l/m 0,0 km/h (0 Bft) S 184 0 min 0,000 mm 0,0 UV-I 0 W/m 3,1 C 5,4 C 0,0 km/h (0 Bft) 0,00 %
30.10.2014 00:15 5,4 C 85 % 1021,0 hPa 0,0 l/m 0,0 km/h (0 Bft) S 184 0 min 0,000 mm 0,0 UV-I 0 W/m 3,1 C 5,4 C 0,0 km/h (0 Bft) 0,00 %
30.10.2014 00:30 5,3 C 85 % 1020,9 hPa 0,0 l/m 0,0 km/h (0 Bft) S 184 0 min 0,000 mm 0,0 UV-I 0 W/m 3,0 C 5,3 C 0,0 km/h (0 Bft) 0,00 %
30.10.2014 00:45 5,3 C 85 % 1021,1 hPa 0,0 l/m 0,0 km/h (0 Bft) S 184 0 min 0,000 mm 0,0 UV-I 0 W/m 3,0 C 5,3 C 0,0 km/h (0 Bft) 0,00 %
30.10.2014 01:00 5,2 C 85 % 1021,1 hPa 0,0 l/m 0,0 km/h (0 Bft) S 184 0 min 0,000 mm 0,0 UV-I 0 W/m 2,9 C 5,2 C 0,0 km/h (0 Bft) 0,00 %
30.10.2014 01:15 5,2 C 85 % 1021,2 hPa 0,0 l/m 0,0 km/h (0 Bft) S 184 0 min 0,000 mm 0,0 UV-I 0 W/m 2,9 C 5,2 C 0,0 km/h (0 Bft) 0,00 %
30.10.2014 01:30 5,3 C 85 % 1021,3 hPa 0,0 l/m 0,0 km/h (0 Bft) S 184 0 min 0,000 mm 0,0 UV-I 0 W/m 3,0 C 5,3 C 0,0 km/h (0 Bft) 0,00 %
30.10.2014 01:45 5,3 C 85 % 1021,4 hPa 0,0 l/m 0,0 km/h (0 Bft) S 184 0 min 0,000 mm 0,0 UV-I 0 W/m 3,0 C 5,3 C 0,0 km/h (0 Bft) 0,00 %
30.10.2014 02:00 5,2 C 85 % 1021,4 hPa 0,0 l/m 0,0 km/h (0 Bft) S 184 0 min 0,000 mm 0,0 UV-I 0 W/m 2,9 C 5,2 C 0,0 km/h (0 Bft) 0,00 %
30.10.2014 02:15 5,3 C 85 % 1021,5 hPa 0,0 l/m 0,0 km/h (0 Bft) S 184 0 min 0,000 mm 0,0 UV-I 0 W/m 3,0 C 5,3 C 0,0 km/h (0 Bft) 0,00 %
30.10.2014 02:30 5,3 C 85 % 1021,6 hPa 0,0 l/m 0,0 km/h (0 Bft) S 184 0 min 0,000 mm 0,0 UV-I 0 W/m 3,0 C 5,3 C 0,0 km/h (0 Bft) 0,00 %
30.10.2014 02:45 5,3 C 85 % 1021,5 hPa 0,0 l/m 0,0 km/h (0 Bft) S 184 0 min 0,000 mm 0,0 UV-I 0 W/m 3,0 C 5,3 C 0,0 km/h (0 Bft) 0,00 %
30.10.2014 03:00 5,3 C 86 % 1021,6 hPa 0,0 l/m 0,0 km/h (0 Bft) S 184 0 min 0,000 mm 0,0 UV-I 0 W/m 3,2 C 5,3 C 0,0 km/h (0 Bft) 0,00 %
30.10.2014 03:15 5,2 C 85 % 1021,7 hPa 0,0 l/m 0,0 km/h (0 Bft) S 183 0 min 0,000 mm 0,0 UV-I 0 W/m 2,9 C 5,2 C 0,0 km/h (0 Bft) 0,00 %
30.10.2014 03:30 5,2 C 85 % 1021,8 hPa 0,0 l/m 0,0 km/h (0 Bft) S 183 0 min 0,000 mm 0,0 UV-I 0 W/m 2,9 C 5,2 C 0,0 km/h (0 Bft) 0,00 %
30.10.2014 03:45 5,1 C 86 % 1021,7 hPa 0,0 l/m 0,0 km/h (0 Bft) S-SW 201 0 min 0,000 mm 0,0 UV-I 0 W/m 3,0 C 5,1 C 0,0 km/h (0 Bft) 0,00 %
30.10.2014 04:00 5,3 C 86 % 1021,9 hPa 0,0 l/m 0,0 km/h (0 Bft) S-SW 201 0 min 0,000 mm 0,0 UV-I 0 W/m 3,2 C 5,3 C 0,0 km/h (0 Bft) 0,00 %
30.10.2014 04:15 5,4 C 86 % 1022,1 hPa 0,0 l/m 0,0 km/h (0 Bft) S-SW 201 0 min 0,000 mm 0,0 UV-I 0 W/m 3,3 C 5,4 C 0,0 km/h (0 Bft) 0,00 %
30.10.2014 04:30 5,3 C 86 % 1021,7 hPa 0,0 l/m 0,0 km/h (0 Bft) S-SW 201 0 min 0,000 mm 0,0 UV-I 0 W/m 3,2 C 5,3 C 0,0 km/h (0 Bft) 0,00 %
30.10.2014 04:45 5,2 C 86 % 1021,7 hPa 0,0 l/m 0,0 km/h (0 Bft) S-SW 201 0 min 0,000 mm 0,0 UV-I 0 W/m 3,1 C 5,2 C 0,0 km/h (0 Bft) 0,00 %
30.10.2014 05:00 5,3 C 86 % 1022,0 hPa 0,0 l/m 0,0 km/h (0 Bft) S-SW 201 0 min 0,000 mm 0,0 UV-I 0 W/m 3,2 C 5,3 C 0,0 km/h (0 Bft) 0,00 %
30.10.2014 05:15 5,3 C 85 % 1022,1 hPa 0,0 l/m 0,0 km/h (0 Bft) S-SW 201 0 min 0,000 mm 0,0 UV-I 0 W/m 3,0 C 5,3 C 0,0 km/h (0 Bft) 0,00 %
30.10.2014 05:30 5,5 C 85 % 1022,2 hPa 0,0 l/m 0,0 km/h (0 Bft) W-SW 256 0 min 0,000 mm 0,0 UV-I 0 W/m 3,2 C 5,5 C 0,0 km/h (0 Bft) 0,00 %
30.10.2014 05:45 5,4 C 86 % 1022,5 hPa 0,0 l/m 0,0 km/h (0 Bft) W-SW 252 0 min 0,000 mm 0,0 UV-I 0 W/m 3,3 C 5,4 C 0,0 km/h (0 Bft) 0,00 %
30.10.2014 06:00 5,4 C 86 % 1022,4 hPa 0,0 l/m 0,0 km/h (0 Bft) SW 223 0 min 0,000 mm 0,0 UV-I 0 W/m 3,3 C 5,4 C 0,0 km/h (0 Bft) 0,00 %
30.10.2014 06:15 5,4 C 85 % 1022,7 hPa 0,0 l/m 0,0 km/h (0 Bft) W-SW 252 0 min 0,000 mm 0,0 UV-I 0 W/m 3,1 C 5,4 C 0,0 km/h (0 Bft) 0,00 %
30.10.2014 06:30 5,4 C 85 % 1022,8 hPa 0,0 l/m 0,0 km/h (0 Bft) S-SW 196 0 min 0,000 mm 0,0 UV-I 0 W/m 3,1 C 5,4 C 0,0 km/h (0 Bft) 0,00 %
30.10.2014 06:45 5,5 C 85 % 1023,0 hPa 0,0 l/m 0,0 km/h (0 Bft) W-SW 252 0 min 0,000 mm 0,0 UV-I 0 W/m 3,2 C 5,5 C 0,0 km/h (0 Bft) 0,00 %
30.10.2014 07:00 5,6 C 85 % 1023,3 hPa 0,0 l/m 0,0 km/h (0 Bft) S-SW 210 0 min 0,000 mm 0,0 UV-I 0 W/m 3,3 C 5,6 C 0,0 km/h (0 Bft) 0,00 %
30.10.2014 07:15 5,7 C 85 % 1023,4 hPa 0,0 l/m 0,0 km/h (0 Bft) S-SW 212 0 min 0,000 mm 0,0 UV-I 0 W/m 3,4 C 5,7 C 0,0 km/h (0 Bft) 0,00 %
30.10.2014 07:30 5,8 C 85 % 1023,6 hPa 0,0 l/m 0,0 km/h (0 Bft) SW 216 0 min 0,000 mm 0,0 UV-I 18 W/m 3,5 C 5,8 C 0,0 km/h (0 Bft) 0,00 %
30.10.2014 07:45 6,0 C 85 % 1023,9 hPa 0,0 l/m 0,0 km/h (0 Bft) SW 219 0 min 0,000 mm 0,0 UV-I 47 W/m 3,7 C 6,0 C 0,0 km/h (0 Bft) 0,00 %
30.10.2014 08:00 6,3 C 84 % 1024,0 hPa 0,0 l/m 0,0 km/h (0 Bft) W-SW 251 15 min 0,000 mm 1,0 UV-I 149 W/m 3,8 C 6,3 C 0,0 km/h (0 Bft) 0,00 %
30.10.2014 08:15 6,7 C 82 % 1023,8 hPa 0,0 l/m 0,0 km/h (0 Bft) S 180 15 min 0,000 mm 1,0 UV-I 246 W/m 3,8 C 6,7 C 0,0 km/h (0 Bft) 0,00 %
30.10.2014 08:30 7,5 C 80 % 1023,9 hPa 0,0 l/m 0,0 km/h (0 Bft) S 175 15 min 0,000 mm 1,0 UV-I 252 W/m 4,3 C 7,5 C 0,0 km/h (0 Bft) 0,00 %
30.10.2014 08:45 8,2 C 76 % 1023,7 hPa 0,0 l/m 0,0 km/h (0 Bft) W-SW 252 15 min 0,000 mm 1,0 UV-I 384 W/m 4,2 C 8,2 C 0,0 km/h (0 Bft) 0,00 %
30.10.2014 09:00 8,8 C 75 % 1023,9 hPa 0,0 l/m 0,0 km/h (0 Bft) W-SW 252 15 min 0,000 mm 1,0 UV-I 321 W/m 4,6 C 8,8 C 0,0 km/h (0 Bft) 0,00 %
30.10.2014 09:15 9,0 C 75 % 1023,8 hPa 0,0 l/m 0,4 km/h (0 Bft) W-SW 252 15 min 0,000 mm 1,0 UV-I 534 W/m 4,8 C 9,0 C 4,0 km/h (1 Bft) 0,00 %
30.10.2014 09:30 9,3 C 73 % 1023,7 hPa 0,0 l/m 0,0 km/h (0 Bft) W-SW 252 15 min 0,000 mm 1,0 UV-I 504 W/m 4,7 C 9,3 C 0,0 km/h (0 Bft) 0,00 %
30.10.2014 09:45 9,6 C 73 % 1023,7 hPa 0,0 l/m 0,0 km/h (0 Bft) S-SW 203 15 min 0,000 mm 2,0 UV-I 645 W/m 5,0 C 9,6 C 0,0 km/h (0 Bft) 0,00 %
30.10.2014 10:00 10,1 C 73 % 1023,6 hPa 0,0 l/m 0,0 km/h (0 Bft) W-SW 252 15 min 0,000 mm 2,0 UV-I 667 W/m 5,5 C 10,1 C 0,0 km/h (0 Bft) 0,00 %
30.10.2014 10:15 10,5 C 71 % 1023,4 hPa 0,0 l/m 0,0 km/h (0 Bft) SW 232 15 min 0,000 mm 2,0 UV-I 708 W/m 5,5 C 10,5 C 0,0 km/h (0 Bft) 0,00 %
30.10.2014 10:30 10,7 C 71 % 1022,8 hPa 0,0 l/m 0,0 km/h (0 Bft) SW 217 15 min 0,000 mm 2,0 UV-I 846 W/m 5,7 C 10,7 C 0,0 km/h (0 Bft) 0,00 %
30.10.2014 10:45 11,6 C 69 % 1023,2 hPa 0,0 l/m 0,0 km/h (0 Bft) S-SW 212 15 min 0,000 mm 2,0 UV-I 753 W/m 6,1 C 11,6 C 0,0 km/h (0 Bft) 0,00 %
30.10.2014 11:00 11,3 C 69 % 1023,6 hPa 0,0 l/m 0,0 km/h (0 Bft) S-SW 212 15 min 0,000 mm 1,0 UV-I 532 W/m 5,8 C 11,3 C 0,0 km/h (0 Bft) 0,00 %
30.10.2014 11:15 11,4 C 66 % 1023,5 hPa 0,0 l/m 0,0 km/h (0 Bft) S 187 15 min 0,000 mm 2,0 UV-I 695 W/m 5,3 C 11,4 C 0,0 km/h (0 Bft) 0,00 %
30.10.2014 11:30 11,5 C 67 % 1023,4 hPa 0,0 l/m 1,4 km/h (1 Bft) W 277 15 min 0,000 mm 1,0 UV-I 516 W/m 5,6 C 11,5 C 4,0 km/h (1 Bft) 0,00 %
30.10.2014 11:45 11,4 C 67 % 1022,8 hPa 0,0 l/m 0,0 km/h (0 Bft) W-NW 282 15 min 0,000 mm 2,0 UV-I 841 W/m 5,5 C 11,4 C 0,0 km/h (0 Bft) 0,00 %
30.10.2014 12:00 12,0 C 65 % 1023,2 hPa 0,0 l/m 0,4 km/h (0 Bft) SW 223 15 min 0,000 mm 2,0 UV-I 606 W/m 5,6 C 12,0 C 4,0 km/h (1 Bft) 0,00 %
30.10.2014 12:15 11,9 C 66 % 1023,7 hPa 0,0 l/m 0,0 km/h (0 Bft) SW 225 15 min 0,000 mm 1,0 UV-I 371 W/m 5,8 C 11,9 C 0,0 km/h (0 Bft) 0,00 %
30.10.2014 12:30 12,0 C 67 % 1023,4 hPa 0,0 l/m 0,4 km/h (0 Bft) SW 232 15 min 0,000 mm 2,0 UV-I 735 W/m 6,1 C 12,0 C 4,0 km/h (1 Bft) 0,00 %
30.10.2014 12:45 12,3 C 68 % 1023,7 hPa 0,0 l/m 0,0 km/h (0 Bft) W-SW 252 15 min 0,000 mm 2,0 UV-I 600 W/m 6,6 C 12,3 C 0,0 km/h (0 Bft) 0,00 %
30.10.2014 13:00 12,1 C 67 % 1023,5 hPa 0,0 l/m 0,0 km/h (0 Bft) SW 230 15 min 0,000 mm 1,0 UV-I 431 W/m 6,2 C 12,1 C 0,0 km/h (0 Bft) 0,00 %
30.10.2014 13:15 12,3 C 65 % 1023,4 hPa 0,0 l/m 0,0 km/h (0 Bft) W-SW 255 15 min 0,000 mm 2,0 UV-I 694 W/m 5,9 C 12,3 C 0,0 km/h (0 Bft) 0,00 %
30.10.2014 13:30 12,8 C 63 % 1023,4 hPa 0,0 l/m 1,4 km/h (1 Bft) NO 49 15 min 0,000 mm 2,0 UV-I 630 W/m 5,9 C 12,8 C 4,0 km/h (1 Bft) 0,00 %
30.10.2014 13:45 13,1 C 63 % 1023,7 hPa 0,0 l/m 5,8 km/h (2 Bft) W-SW 256 15 min 0,000 mm 2,0 UV-I 660 W/m 6,2 C 13,1 C 7,9 km/h (2 Bft) 0,00 %
30.10.2014 14:00 12,8 C 64 % 1023,5 hPa 0,0 l/m 0,0 km/h (0 Bft) S 176 15 min 0,000 mm 2,0 UV-I 582 W/m 6,2 C 12,8 C 0,0 km/h (0 Bft) 0,00 %
30.10.2014 14:15 12,4 C 66 % 1023,6 hPa 0,0 l/m 0,7 km/h (0 Bft) N-NW 346 15 min 0,000 mm 1,0 UV-I 394 W/m 6,2 C 12,4 C 4,0 km/h (1 Bft) 0,00 %
30.10.2014 14:30 11,9 C 67 % 1023,7 hPa 0,0 l/m 0,0 km/h (0 Bft) SW 229 15 min 0,000 mm 1,0 UV-I 316 W/m 6,0 C 11,9 C 0,0 km/h (0 Bft) 0,00 %
30.10.2014 14:45 11,5 C 70 % 1023,8 hPa 0,0 l/m 0,0 km/h (0 Bft) W-SW 253 0 min 0,000 mm 1,0 UV-I 142 W/m 6,2 C 11,5 C 0,0 km/h (0 Bft) 0,00 %
30.10.2014 15:00 11,0 C 72 % 1024,1 hPa 0,0 l/m 0,0 km/h (0 Bft) W-SW 252 0 min 0,000 mm 0,0 UV-I 81 W/m 6,2 C 11,0 C 0,0 km/h (0 Bft) 0,00 %
30.10.2014 15:15 10,7 C 72 % 1024,2 hPa 0,0 l/m 0,0 km/h (0 Bft) SW 230 0 min 0,000 mm 0,0 UV-I 71 W/m 5,9 C 10,7 C 0,0 km/h (0 Bft) 0,00 %
30.10.2014 15:30 10,5 C 72 % 1024,3 hPa 0,0 l/m 1,8 km/h (1 Bft) SW 224 0 min 0,000 mm 0,0 UV-I 23 W/m 5,7 C 10,5 C 4,0 km/h (1 Bft) 0,00 %
30.10.2014 15:45 10,4 C 73 % 1024,3 hPa 0,0 l/m 0,0 km/h (0 Bft) SW 215 0 min 0,000 mm 0,0 UV-I 43 W/m 5,8 C 10,4 C 0,0 km/h (0 Bft) 0,00 %
30.10.2014 16:00 10,3 C 73 % 1024,4 hPa 0,0 l/m 0,0 km/h (0 Bft) SW 216 0 min 0,000 mm 0,0 UV-I 25 W/m 5,7 C 10,3 C 0,0 km/h (0 Bft) 0,00 %
30.10.2014 16:15 10,3 C 74 % 1024,4 hPa 0,0 l/m 0,0 km/h (0 Bft) W-SW 239 0 min 0,000 mm 0,0 UV-I 0 W/m 5,9 C 10,3 C 0,0 km/h (0 Bft) 0,00 %
30.10.2014 16:30 10,1 C 74 % 1024,5 hPa 0,0 l/m 0,0 km/h (0 Bft) SW 219 0 min 0,000 mm 0,0 UV-I 0 W/m 5,7 C 10,1 C 0,0 km/h (0 Bft) 0,00 %
30.10.2014 16:45 9,9 C 75 % 1024,7 hPa 0,0 l/m 0,0 km/h (0 Bft) W-SW 256 0 min 0,000 mm 0,0 UV-I 0 W/m 5,7 C 9,9 C 0,0 km/h (0 Bft) 0,00 %
30.10.2014 17:00 9,8 C 76 % 1024,8 hPa 0,0 l/m 0,0 km/h (0 Bft) W-SW 256 0 min 0,000 mm 0,0 UV-I 0 W/m 5,8 C 9,8 C 0,0 km/h (0 Bft) 0,00 %
30.10.2014 17:15 9,7 C 76 % 1025,0 hPa 0,0 l/m 0,0 km/h (0 Bft) SW 216 0 min 0,000 mm 0,0 UV-I 0 W/m 5,7 C 9,7 C 0,0 km/h (0 Bft) 0,00 %
30.10.2014 17:30 9,6 C 77 % 1025,4 hPa 0,0 l/m 0,0 km/h (0 Bft) W-SW 252 0 min 0,000 mm 0,0 UV-I 0 W/m 5,8 C 9,6 C 0,0 km/h (0 Bft) 0,00 %
30.10.2014 17:45 9,6 C 77 % 1025,3 hPa 0,0 l/m 0,0 km/h (0 Bft) SW 221 0 min 0,000 mm 0,0 UV-I 0 W/m 5,8 C 9,6 C 0,0 km/h (0 Bft) 0,00 %
30.10.2014 18:00 9,5 C 80 % 1025,4 hPa 0,0 l/m 0,0 km/h (0 Bft) SW 216 0 min 0,000 mm 0,0 UV-I 0 W/m 6,2 C 9,5 C 0,0 km/h (0 Bft) 0,00 %
30.10.2014 18:15 9,4 C 80 % 1025,4 hPa 0,0 l/m 0,0 km/h (0 Bft) SW 215 0 min 0,000 mm 0,0 UV-I 0 W/m 6,1 C 9,4 C 0,0 km/h (0 Bft) 0,00 %
30.10.2014 18:30 9,3 C 80 % 1025,6 hPa 0,0 l/m 0,0 km/h (0 Bft) SW 215 0 min 0,000 mm 0,0 UV-I 0 W/m 6,0 C 9,3 C 0,0 km/h (0 Bft) 0,00 %
30.10.2014 18:45 9,3 C 80 % 1025,6 hPa 0,0 l/m 0,0 km/h (0 Bft) SW 216 0 min 0,000 mm 0,0 UV-I 0 W/m 6,0 C 9,3 C 0,0 km/h (0 Bft) 0,00 %
30.10.2014 19:00 9,3 C 80 % 1026,0 hPa 0,0 l/m 0,0 km/h (0 Bft) S-SW 207 0 min 0,000 mm 0,0 UV-I 0 W/m 6,0 C 9,3 C 0,0 km/h (0 Bft) 0,00 %
30.10.2014 19:15 9,2 C 80 % 1025,9 hPa 0,0 l/m 0,0 km/h (0 Bft) S 191 0 min 0,000 mm 0,0 UV-I 0 W/m 5,9 C 9,2 C 0,0 km/h (0 Bft) 0,00 %
30.10.2014 19:30 9,2 C 80 % 1026,2 hPa 0,0 l/m 0,0 km/h (0 Bft) S-SW 213 0 min 0,000 mm 0,0 UV-I 0 W/m 5,9 C 9,2 C 0,0 km/h (0 Bft) 0,00 %
30.10.2014 19:45 9,3 C 81 % 1026,3 hPa 0,0 l/m 0,0 km/h (0 Bft) W-SW 248 0 min 0,000 mm 0,0 UV-I 0 W/m 6,2 C 9,3 C 0,0 km/h (0 Bft) 0,00 %
30.10.2014 20:00 9,3 C 81 % 1026,3 hPa 0,0 l/m 0,0 km/h (0 Bft) W-SW 255 0 min 0,000 mm 0,0 UV-I 0 W/m 6,2 C 9,3 C 0,0 km/h (0 Bft) 0,00 %
30.10.2014 20:15 9,2 C 81 % 1026,3 hPa 0,0 l/m 0,0 km/h (0 Bft) SW 230 0 min 0,000 mm 0,0 UV-I 0 W/m 6,1 C 9,2 C 0,0 km/h (0 Bft) 0,00 %
30.10.2014 20:30 9,1 C 82 % 1026,4 hPa 0,0 l/m 0,0 km/h (0 Bft) SW 232 0 min 0,000 mm 0,0 UV-I 0 W/m 6,2 C 9,1 C 0,0 km/h (0 Bft) 0,00 %
30.10.2014 20:45 9,0 C 83 % 1026,3 hPa 0,0 l/m 0,0 km/h (0 Bft) SW 214 0 min 0,000 mm 0,0 UV-I 0 W/m 6,3 C 9,0 C 0,0 km/h (0 Bft) 0,00 %
30.10.2014 21:00 9,0 C 83 % 1026,5 hPa 0,0 l/m 0,0 km/h (0 Bft) SW 228 0 min 0,000 mm 0,0 UV-I 0 W/m 6,3 C 9,0 C 0,0 km/h (0 Bft) 0,00 %
30.10.2014 21:15 9,0 C 83 % 1026,5 hPa 0,0 l/m 0,0 km/h (0 Bft) SW 220 0 min 0,000 mm 0,0 UV-I 0 W/m 6,3 C 9,0 C 0,0 km/h (0 Bft) 0,00 %
30.10.2014 21:30 9,0 C 84 % 1026,6 hPa 0,0 l/m 0,0 km/h (0 Bft) SW 226 0 min 0,000 mm 0,0 UV-I 0 W/m 6,4 C 9,0 C 0,0 km/h (0 Bft) 0,00 %
30.10.2014 21:45 8,9 C 84 % 1026,8 hPa 0,0 l/m 0,0 km/h (0 Bft) S-SW 212 0 min 0,000 mm 0,0 UV-I 0 W/m 6,3 C 8,9 C 0,0 km/h (0 Bft) 0,00 %
30.10.2014 22:00 8,9 C 84 % 1026,7 hPa 0,0 l/m 0,0 km/h (0 Bft) SW 216 0 min 0,000 mm 0,0 UV-I 0 W/m 6,3 C 8,9 C 0,0 km/h (0 Bft) 0,00 %
30.10.2014 22:15 8,9 C 84 % 1026,8 hPa 0,0 l/m 0,0 km/h (0 Bft) SW 216 0 min 0,000 mm 0,0 UV-I 0 W/m 6,3 C 8,9 C 0,0 km/h (0 Bft) 0,00 %
30.10.2014 22:30 8,9 C 84 % 1026,8 hPa 0,0 l/m 0,0 km/h (0 Bft) SW 222 0 min 0,000 mm 0,0 UV-I 0 W/m 6,3 C 8,9 C 0,0 km/h (0 Bft) 0,00 %
30.10.2014 22:45 8,9 C 84 % 1026,8 hPa 0,0 l/m 0,0 km/h (0 Bft) SW 228 0 min 0,000 mm 0,0 UV-I 0 W/m 6,3 C 8,9 C 0,0 km/h (0 Bft) 0,00 %
30.10.2014 23:00 8,9 C 84 % 1026,9 hPa 0,0 l/m 0,0 km/h (0 Bft) SW 220 0 min 0,000 mm 0,0 UV-I 0 W/m 6,3 C 8,9 C 0,0 km/h (0 Bft) 0,00 %
30.10.2014 23:15 8,9 C 84 % 1026,8 hPa 0,0 l/m 0,0 km/h (0 Bft) SW 220 0 min 0,000 mm 0,0 UV-I 0 W/m 6,3 C 8,9 C 0,0 km/h (0 Bft) 0,00 %
30.10.2014 23:30 8,9 C 84 % 1026,8 hPa 0,0 l/m 0,0 km/h (0 Bft) SW 220 0 min 0,000 mm 0,0 UV-I 0 W/m 6,3 C 8,9 C 0,0 km/h (0 Bft) 0,00 %
30.10.2014 23:45 8,9 C 84 % 1026,9 hPa 0,0 l/m 0,0 km/h (0 Bft) SW 220 0 min 0,000 mm 0,0 UV-I 0 W/m 6,3 C 8,9 C 0,0 km/h (0 Bft) 0,00 %
_ Min-Zeit 03:45 13:30 00:30 - 00:00 - - - - - - 01:00 03:45 00:00 00:00
Minimum _ 5,1 C 63 % 1020,9 hPa - 0,0 km/h (0 Bft) - - - - - - 2,9 C 5,1 C 0,0 km/h (0 Bft) 0,00 %
_ Max-Zeit 13:45 03:00 23:00 00:00 13:45 - - 08:00 00:00 09:45 10:30 12:45 13:45 13:45 00:00
Maximum _ 13,1 C 86 % 1026,9 hPa 0,0 l/m 5,8 km/h
W-SW (2 Bft)
- - 15 min 0,000 mm 2,0 UV-I 846 W/m 6,6 C 13,1 C 7,9 km/h
W-SW (2 Bft)
0,00 %
Durchschnitt _ 8,5 C 79 % 1023,9 hPa #0,0 l/m 0,1 km/h (0 Bft) NO - #6:45 h #0,000 mm 1,5 UV-I 430 W/m 4,9 C 8,5 C 0,4 km/h (0 Bft) 0,00 %